Home > Weather > Fort Collins > Past weeks

Flag for USA Past Weather in Fort Collins, Colorado, USA — Yesterday and Last 2 Weeks

Now
61 °F

Sunny.


Feels Like: 61 °F
Forecast: 43 / 72 °F
Wind: 12 mph from South

Location: Fort Collins-Loveland Municipal Airport

Current Time: May 25, 2016 at 11:10:16 AM

Latest Report: May 25, 2016 at 10:35 AM


Visibility: 10 mi

Pressure: 30.02 "Hg (25.08 "Hg at 1522m altitude)

Humidity: 59%

Dew Point: 46 °F

Location of Fort CollinsLocation

Past Weather in Fort Collins — Graph

°F

Fort Collins Temperature Yesterday

Maximum temperature yesterday: 70 °F (at 1:35 PM)
Minimum temperature yesterday: 39 °F (at 2:55 PM)
Average temperature yesterday: 53 °F

High & Low Weather Summary for the Past Weeks

 TemperatureHumidityPressure
High82 °F (May 21, 4:15 PM)100% (May 22, 2:55 AM)30.39 "Hg (May 22, 2:55 AM)
Low36 °F (May 23, 3:35 PM)29% (May 12, 5:15 PM)29.72 "Hg (May 21, 5:35 PM)
Average53 °F68%30.04 "Hg
* Reported May 10 10:15 AM — May 25 10:15 AM, Fort Collins, Weather by CustomWeather, © 2016

Note: Actual official high and low records may vary slightly from our data, if they occured in-between our weather recording intervals... More about our weather records

Advertising

Fort Collins Weather History for the Previous 24 Hours

Scroll right to see more
 ConditionsComfort  
Time TempWeatherWind HumidityBarometerVisibility
10:15 AM
Wed, May 25
59 °FSunny.9 mph59%30.02 "Hg10 mi
9:35 AM57 °FSunny.12 mph59%30.03 "Hg10 mi
9:15 AM55 °FSunny.5 mph59%30.03 "Hg10 mi
8:55 AM54 °FSunny.9 mph63%30.03 "Hg10 mi
8:35 AM54 °FSunny.8 mph63%30.03 "Hg10 mi
8:15 AM52 °FSunny.10 mph72%30.03 "Hg10 mi
7:55 AM52 °FSunny.8 mph72%30.01 "Hg10 mi
7:35 AM52 °FSunny.7 mph72%30.01 "Hg10 mi
7:15 AM50 °FSunny.5 mph76%30.00 "Hg10 mi
6:55 AM46 °FSunny.No wind82%30.00 "Hg10 mi
6:35 AM45 °FSunny.6 mph81%29.99 "Hg10 mi
6:15 AM48 °FClear.No wind71%29.98 "Hg10 mi
5:55 AM50 °FClear.No wind76%29.97 "Hg10 mi
5:35 AM48 °FClear.3 mph76%29.96 "Hg10 mi
5:15 AM48 °FClear.No wind82%29.95 "Hg10 mi
4:55 AM48 °FClear.No wind82%29.95 "Hg10 mi
4:35 AM46 °FClear.No wind76%29.95 "Hg10 mi
4:15 AM46 °FClear.3 mph82%29.94 "Hg10 mi
3:55 AM45 °FClear.5 mph76%29.94 "Hg10 mi
3:35 AM46 °FClear.5 mph76%29.93 "Hg10 mi
3:15 AM46 °FClear.No wind71%29.93 "Hg10 mi
2:55 AM45 °FClear.5 mph71%29.92 "Hg10 mi
2:35 AM48 °FClear.9 mph71%29.91 "Hg10 mi
2:15 AM48 °FClear.8 mph71%29.91 "Hg10 mi
1:55 AM52 °FClear.10 mph67%29.91 "Hg10 mi
1:35 AM54 °FClear.10 mph63%29.90 "Hg10 mi
1:15 AM54 °FClear.12 mph67%29.91 "Hg10 mi
12:55 AM54 °FClear.13 mph77%29.90 "Hg10 mi
12:35 AM50 °FClear.8 mph82%29.90 "Hg10 mi
12:15 AM52 °FClear.8 mph77%29.91 "Hg10 mi
11:55 PM
Tue, May 24
54 °FClear.No wind77%29.89 "Hg10 mi
11:35 PM54 °FClear.No wind77%29.88 "Hg10 mi
11:15 PM54 °FClear.No wind77%29.88 "Hg10 mi
10:55 PM52 °FClear.No wind77%29.86 "Hg10 mi
10:35 PM54 °FClear.No wind77%29.86 "Hg10 mi
9:55 PM55 °FClear.No wind72%29.86 "Hg10 mi
9:35 PM55 °FClear.7 mph77%29.87 "Hg10 mi
9:15 PM57 °FSunny.5 mph72%29.85 "Hg10 mi
8:55 PM59 °FSunny.8 mph63%29.85 "Hg10 mi
8:35 PM61 °FSunny.6 mph63%29.83 "Hg10 mi
7:55 PM59 °FSunny.6 mph68%29.86 "Hg10 mi
7:35 PM59 °FSunny.9 mph68%29.86 "Hg10 mi
7:15 PM39 °FSunny.6 mphN/A29.85 "Hg9 mi
6:55 PM39 °FSunny.8 mphN/A29.85 "Hg10 mi
6:35 PM43 °FPassing clouds.7 mph100%29.84 "Hg10 mi
6:15 PM68 °FBroken clouds.9 mph49%29.84 "Hg10 mi
5:55 PM70 °FScattered clouds.9 mph46%29.85 "Hg10 mi
5:35 PM68 °FSunny.16 mph49%29.84 "Hg8 mi
5:15 PM46 °FSunny.15 mph100%29.84 "Hg10 mi
4:55 PM43 °FSunny.5 mph100%29.84 "Hg10 mi
4:35 PM43 °FSunny.8 mphN/A29.84 "Hg10 mi
4:15 PM46 °FSunny.10 mph100%29.84 "Hg10 mi
3:55 PM55 °FSunny.12 mph77%29.85 "Hg10 mi
3:35 PM46 °FSunny.18 mph100%29.85 "Hg10 mi
3:15 PM43 °FThundershowers. Sunny.12 mphN/A29.87 "Hg10 mi
2:55 PM39 °FThunderstorms. Sunny.13 mphN/A29.87 "Hg10 mi
2:35 PM50 °FThunderstorms. Scattered clouds.8 mph100%29.87 "Hg10 mi
2:15 PM66 °FThunderstorms. Mostly cloudy.6 mph56%29.89 "Hg9 mi
1:55 PM68 °FThundershowers. Scattered clouds.6 mph53%29.88 "Hg10 mi
1:35 PM70 °FPartly sunny.13 mph46%29.90 "Hg10 mi
1:15 PM68 °FPartly sunny.9 mph49%29.91 "Hg10 mi
12:55 PM68 °FBroken clouds.8 mph49%29.92 "Hg10 mi
12:35 PM68 °FPartly sunny.10 mph49%29.93 "Hg10 mi
12:15 PM66 °FPartly sunny.9 mph52%29.95 "Hg10 mi
11:55 AM66 °FScattered clouds.7 mph52%29.96 "Hg10 mi
11:35 AM64 °FSunny.12 mph56%29.96 "Hg5 mi
11:15 AM64 °FPassing clouds.15 mph56%29.97 "Hg10 mi
Weather by CustomWeather, © 2016

See weather overviewHow to use our weather pages